Train No Train Name From To Distance Stops avg_speed (km/hr)
11108 Bundelkhand Express Varanasi Junction Gwalior 629 35 41
A Train's "Departure" Station, "Arrival" Station and "Distance" may vary. Although we have verified some of this data from enquiry.indianrail.gov.in
Train No Start Date (yyyy-mm-dd) Status Delay Time Source
11108 2017-01-03 Late 53 hours 40 minutes Source
11108 2017-01-04 Late 29 hours 40 minutes Source
11108 2017-01-08 Late 27 hours 43 minutes Source
11108 2017-01-09 Late 40 hours 12 minutes Source
11108 2017-01-13 Late 70 hours 30 minutes Source
11108 2017-01-15 Late 34 hours 40 minutes Source
11108 2017-02-03 Late 34 hours 23 minutes Source
11108 2017-02-07 Late 31 hours 25 minutes Source
11108 2017-02-16 Late 38 hours 02 minutes Source
11108 2017-02-22 Late 34 hours 25 minutes Source
11108 2017-03-01 Late 39 hours 15 minutes Source
11108 2017-03-03 Late 40 hours 51 minutes Source
11108 2017-03-06 Late 31 hours 40 minutes Source
11108 2017-03-07 Late 52 hours 27 minutes Source
11108 2017-03-09 Late 24 hours 40 minutes Source
11108 2017-03-10 Late 25 hours 20 minutes Source
11108 2017-03-11 Late 31 hours 56 minutes Source
11108 2017-03-13 Late 36 hours 17 minutes Source
11108 2017-03-27 Late 23 hours 59 minutes Source
11108 2017-04-04 Late 44 hours 40 minutes Source
Page 1 of 1, showing 20 records out of 20 total